ASTRA 2G

Last updated on Sat Apr 13 2024 01:02:38 GMT+0100 (British Summer Time)

1 40364U 14089A 24103.31146919 .00000141 00000+0 00000+0 0 9997 2 40364 0.0545 26.0237 0004178 17.0008 298.2589 1.00272230 33982
UTC large
Height (km)
Speed (km/s)
/
Latitude / Longitude
Inclination (degrees)
Orbital Period (minutes)
Azimuth
Elevation
Range (km)
Doppler Factor

Next 0 passes for location: London (51.5072 / 0.1276)

Sorry there are no passes over London.